MBEST EKBI-EGNS

Flight info

Callsign MBEST
Flight time 1h 14m
Altitude 43000
Route BAMPI5A BAMPI P60 AMRAM L983 BUSOM DCT DOKEN DCT ROBEM DCT MASOP DCT
Aircraft C750/M-SBDE3FGHRWXY/S

Departure

Time 2026-04-26 10:51
Airport Billund Airport (EKBI)

Arrival

Time 2026-04-26 12:05
Airport Isle of Man Airport (EGNS)
Time Latitude Longitude Altitude Speed Heading
2026-04-26 10:20 55.73578 9.15209 226 ft 0 kts 82°
2026-04-26 10:40 55.73569 9.15170 226 ft 9 kts 18°
2026-04-26 10:40 55.73606 9.15168 226 ft 12 kts 357°
2026-04-26 10:41 55.73669 9.15161 226 ft 8 kts 348°
2026-04-26 10:41 55.73685 9.15080 225 ft 7 kts 269°
2026-04-26 10:41 55.73683 9.14996 225 ft 7 kts 266°
2026-04-26 10:41 55.73680 9.14905 224 ft 8 kts 266°
2026-04-26 10:42 55.73720 9.14830 223 ft 10 kts
2026-04-26 10:42 55.73784 9.14826 223 ft 9 kts 357°
2026-04-26 10:42 55.73838 9.14806 223 ft 8 kts 333°
2026-04-26 10:42 55.73878 9.14766 223 ft 8 kts 329°
2026-04-26 10:43 55.73899 9.14664 223 ft 11 kts 243°
2026-04-26 10:43 55.73871 9.14543 222 ft 11 kts 255°
2026-04-26 10:43 55.73857 9.14414 221 ft 11 kts 262°
2026-04-26 10:43 55.73850 9.14300 220 ft 5 kts 264°
2026-04-26 10:44 55.73877 9.14271 220 ft 4 kts 36°
2026-04-26 10:44 55.73896 9.14310 220 ft 5 kts 50°
2026-04-26 10:44 55.73909 9.14336 220 ft 0 kts 47°
2026-04-26 10:45 55.73917 9.14352 220 ft 8 kts 47°
2026-04-26 10:45 55.73972 9.14452 221 ft 11 kts 51°
2026-04-26 10:45 55.74034 9.14501 221 ft 10 kts 355°
2026-04-26 10:46 55.74122 9.14492 221 ft 15 kts 356°
2026-04-26 10:46 55.74185 9.14570 222 ft 11 kts 85°
2026-04-26 10:46 55.74189 9.14697 223 ft 9 kts 87°
2026-04-26 10:46 55.74193 9.14849 224 ft 15 kts 86°
2026-04-26 10:47 55.74200 9.15074 225 ft 21 kts 88°
2026-04-26 10:47 55.74207 9.15327 227 ft 19 kts 87°
2026-04-26 10:47 55.74214 9.15554 229 ft 18 kts 87°
2026-04-26 10:47 55.74220 9.15759 230 ft 16 kts 89°
2026-04-26 10:48 55.74228 9.15934 231 ft 13 kts 85°
2026-04-26 10:48 55.74234 9.16088 232 ft 12 kts 86°
2026-04-26 10:48 55.74237 9.16264 235 ft 22 kts 87°
2026-04-26 10:48 55.74249 9.16641 236 ft 30 kts 87°
2026-04-26 10:49 55.74252 9.16747 236 ft 11 kts 87°
2026-04-26 10:49 55.74255 9.16843 237 ft 0 kts 87°
2026-04-26 10:49 55.74254 9.16875 237 ft 6 kts 100°
2026-04-26 10:50 55.74185 9.16910 238 ft 13 kts 177°
2026-04-26 10:50 55.74114 9.16906 239 ft 21 kts 204°
2026-04-26 10:50 55.74065 9.16047 230 ft 117 kts 266°
2026-04-26 10:50 55.74015 9.14410 695 ft 139 kts 266°
2026-04-26 10:51 55.74041 9.12579 1310 ft 157 kts 273°
2026-04-26 10:51 55.75260 9.09173 2449 ft 190 kts 310°
2026-04-26 10:51 55.76172 9.07281 2833 ft 212 kts 306°
2026-04-26 10:52 55.77058 9.05173 3585 ft 215 kts 303°
2026-04-26 10:52 55.77992 9.02901 4115 ft 241 kts 304°
2026-04-26 10:52 55.79000 9.00400 4870 ft 253 kts 301°
2026-04-26 10:52 55.79706 8.97591 6140 ft 243 kts 296°
2026-04-26 10:53 55.80492 8.94943 7112 ft 255 kts 300°
2026-04-26 10:53 55.81422 8.91995 7490 ft 287 kts 301°
2026-04-26 10:53 55.82392 8.89029 8350 ft 273 kts 302°
2026-04-26 10:54 55.84111 8.83305 10663 ft 272 kts 299°
2026-04-26 10:54 55.84966 8.80113 10905 ft 300 kts 297°
2026-04-26 10:54 55.85714 8.76476 10958 ft 331 kts 282°
2026-04-26 10:54 55.85405 8.72377 11725 ft 343 kts 252°
2026-04-26 10:55 55.84151 8.68718 12524 ft 350 kts 241°
2026-04-26 10:55 55.82860 8.65034 13268 ft 351 kts 244°
2026-04-26 10:55 55.82057 8.60981 13881 ft 347 kts 265°
2026-04-26 10:55 55.81971 8.58163 14384 ft 344 kts 275°
2026-04-26 10:56 55.82257 8.52493 15272 ft 346 kts 278°
2026-04-26 10:56 55.82537 8.48230 15949 ft 348 kts 281°
2026-04-26 10:56 55.82926 8.43969 16608 ft 351 kts 281°
2026-04-26 10:56 55.83307 8.39657 17296 ft 355 kts 280°
2026-04-26 10:57 55.83639 8.35286 18028 ft 358 kts 279°
2026-04-26 10:57 55.83971 8.30879 18748 ft 361 kts 279°
2026-04-26 10:57 55.84324 8.26432 19396 ft 365 kts 279°
2026-04-26 10:57 55.84616 8.21925 20040 ft 368 kts 278°
2026-04-26 10:58 55.84931 8.17385 20728 ft 371 kts 279°
2026-04-26 10:58 55.85247 8.12801 21403 ft 375 kts 278°
2026-04-26 10:58 55.85552 8.08167 22062 ft 379 kts 278°
2026-04-26 10:58 55.85864 8.03494 22712 ft 382 kts 278°
2026-04-26 10:59 55.86187 7.98769 23350 ft 386 kts 278°
2026-04-26 10:59 55.86507 7.94004 23969 ft 390 kts 278°
2026-04-26 10:59 55.86817 7.89192 24496 ft 393 kts 277°
2026-04-26 10:59 55.87127 7.84334 25020 ft 396 kts 277°
2026-04-26 11:00 55.87443 7.79442 25573 ft 399 kts 277°
2026-04-26 11:00 55.87760 7.74519 26120 ft 401 kts 277°
2026-04-26 11:00 55.88076 7.69566 26666 ft 404 kts 277°
2026-04-26 11:00 55.88393 7.64571 27209 ft 407 kts 277°
2026-04-26 11:01 55.88706 7.59608 27751 ft 410 kts 277°
2026-04-26 11:01 55.89022 7.54545 28294 ft 413 kts 277°
2026-04-26 11:01 55.89338 7.49468 28841 ft 416 kts 277°
2026-04-26 11:01 55.89657 7.44299 29391 ft 419 kts 277°
2026-04-26 11:02 55.89979 7.39045 29924 ft 422 kts 276°
2026-04-26 11:02 55.90293 7.33895 30427 ft 425 kts 276°
2026-04-26 11:02 55.90611 7.28630 30845 ft 429 kts 276°
2026-04-26 11:02 55.90929 7.23330 31276 ft 432 kts 276°
2026-04-26 11:03 55.91246 7.18010 31896 ft 430 kts 276°
2026-04-26 11:03 55.91558 7.12725 32540 ft 428 kts 276°
2026-04-26 11:03 55.91867 7.07459 33153 ft 427 kts 276°
2026-04-26 11:03 55.92174 7.02203 33781 ft 426 kts 276°
2026-04-26 11:04 55.92477 6.96957 34417 ft 425 kts 276°
2026-04-26 11:04 55.92777 6.91723 34952 ft 424 kts 276°
2026-04-26 11:04 55.93075 6.86502 35478 ft 423 kts 276°
2026-04-26 11:04 55.93370 6.81281 35996 ft 423 kts 276°
2026-04-26 11:05 55.93663 6.76059 36496 ft 423 kts 276°
2026-04-26 11:05 55.93953 6.70836 36994 ft 423 kts 276°
2026-04-26 11:05 55.94242 6.65615 37522 ft 423 kts 276°
2026-04-26 11:05 55.94386 6.60373 38003 ft 423 kts 271°
2026-04-26 11:06 55.94386 6.55129 38543 ft 423 kts 271°
2026-04-26 11:06 55.94390 6.51658 38906 ft 422 kts 271°
2026-04-26 11:06 55.94417 6.44651 39460 ft 422 kts 271°
2026-04-26 11:06 55.94432 6.39407 39836 ft 424 kts 271°
2026-04-26 11:07 55.94435 6.35924 40089 ft 424 kts 271°
2026-04-26 11:07 55.94437 6.30656 40479 ft 425 kts 271°
2026-04-26 11:07 55.94442 6.25331 40878 ft 426 kts 271°
2026-04-26 11:07 55.94446 6.20087 41255 ft 427 kts 271°
2026-04-26 11:08 55.94446 6.14780 41643 ft 428 kts 271°
2026-04-26 11:08 55.94442 6.09462 42055 ft 429 kts 271°
2026-04-26 11:08 55.94437 6.04136 42454 ft 430 kts 271°
2026-04-26 11:08 55.94431 5.98798 42853 ft 431 kts 271°
2026-04-26 11:09 55.94421 5.93458 43248 ft 431 kts 271°
2026-04-26 11:09 55.94410 5.88081 43361 ft 438 kts 271°
2026-04-26 11:09 55.94379 5.77006 43377 ft 455 kts 271°
2026-04-26 11:10 55.94335 5.65501 43373 ft 472 kts 271°
2026-04-26 11:10 55.94278 5.53617 43380 ft 487 kts 270°
2026-04-26 11:11 55.94207 5.41416 43382 ft 494 kts 270°
2026-04-26 11:11 55.93522 5.29176 43378 ft 497 kts 264°
2026-04-26 11:12 55.92691 5.16943 43385 ft 497 kts 264°
2026-04-26 11:12 55.91871 5.04693 43386 ft 497 kts 264°
2026-04-26 11:13 55.91017 4.92455 43384 ft 498 kts 264°
2026-04-26 11:13 55.90168 4.80218 43380 ft 498 kts 264°
2026-04-26 11:14 55.89295 4.67987 43383 ft 497 kts 264°
2026-04-26 11:14 55.88417 4.55764 43381 ft 498 kts 264°
2026-04-26 11:15 55.87522 4.43536 43378 ft 498 kts 264°
2026-04-26 11:15 55.86617 4.31309 43382 ft 498 kts 264°
2026-04-26 11:16 55.85699 4.19091 43386 ft 498 kts 263°
2026-04-26 11:16 55.84770 4.06881 43386 ft 498 kts 263°
2026-04-26 11:17 55.83827 3.94667 43385 ft 498 kts 263°
2026-04-26 11:17 55.82873 3.82460 43371 ft 498 kts 263°
2026-04-26 11:18 55.81907 3.70267 43370 ft 498 kts 263°
2026-04-26 11:18 55.80929 3.58078 43372 ft 498 kts 263°
2026-04-26 11:19 55.79938 3.45887 43369 ft 498 kts 263°
2026-04-26 11:19 55.78936 3.33714 43376 ft 498 kts 263°
2026-04-26 11:20 55.78094 3.23597 43375 ft 498 kts 263°
2026-04-26 11:20 55.76895 3.09369 43377 ft 498 kts 263°
2026-04-26 11:21 55.75856 2.97205 43378 ft 498 kts 262°
2026-04-26 11:21 55.74805 2.85049 43384 ft 498 kts 262°
2026-04-26 11:22 55.73742 2.72901 43383 ft 498 kts 262°
2026-04-26 11:22 55.72668 2.60765 43384 ft 498 kts 262°
2026-04-26 11:23 55.71582 2.48639 43381 ft 498 kts 262°
2026-04-26 11:23 55.70484 2.36512 43381 ft 498 kts 262°
2026-04-26 11:24 55.69375 2.24403 43378 ft 498 kts 262°
2026-04-26 11:24 55.68256 2.12294 43376 ft 498 kts 262°
2026-04-26 11:25 55.67514 2.00108 43377 ft 497 kts 265°
2026-04-26 11:25 55.66798 1.87923 43382 ft 497 kts 265°
2026-04-26 11:26 55.66055 1.75739 43377 ft 497 kts 265°
2026-04-26 11:26 55.65315 1.63559 43370 ft 498 kts 264°
2026-04-26 11:27 55.64551 1.51385 43370 ft 498 kts 264°
2026-04-26 11:27 55.63783 1.39216 43374 ft 498 kts 264°
2026-04-26 11:28 55.62997 1.27046 43366 ft 498 kts 264°
2026-04-26 11:28 55.62208 1.14960 43366 ft 498 kts 264°
2026-04-26 11:29 55.61401 1.02818 43352 ft 496 kts 264°
2026-04-26 11:29 55.60579 0.90621 43352 ft 496 kts 264°
2026-04-26 11:30 55.59891 0.80556 43358 ft 496 kts 264°
2026-04-26 11:30 55.58909 0.66399 43349 ft 496 kts 264°
2026-04-26 11:31 55.58061 0.54372 43347 ft 497 kts 263°
2026-04-26 11:31 55.57195 0.42259 43342 ft 497 kts 263°
2026-04-26 11:32 55.56317 0.30147 43342 ft 497 kts 263°
2026-04-26 11:32 55.55427 0.18042 43337 ft 497 kts 263°
2026-04-26 11:33 55.54525 0.05941 43348 ft 497 kts 263°
2026-04-26 11:33 55.53611 -0.06160 43342 ft 497 kts 263°
2026-04-26 11:34 55.52685 -0.18247 43342 ft 497 kts 263°
2026-04-26 11:34 55.51748 -0.30322 43344 ft 497 kts 263°
2026-04-26 11:35 55.50799 -0.42397 43344 ft 497 kts 263°
2026-04-26 11:35 55.50002 -0.52420 43335 ft 497 kts 263°
2026-04-26 11:36 55.48866 -0.66513 43335 ft 497 kts 262°
2026-04-26 11:36 55.47882 -0.78563 43330 ft 497 kts 262°
2026-04-26 11:37 55.46886 -0.90607 43322 ft 497 kts 262°
2026-04-26 11:37 55.45296 -1.02431 43313 ft 498 kts 250°
2026-04-26 11:38 55.41899 -1.13087 43312 ft 500 kts 238°
2026-04-26 11:38 55.38106 -1.23344 43310 ft 500 kts 239°
2026-04-26 11:39 55.34334 -1.33616 43308 ft 500 kts 238°
2026-04-26 11:39 55.32472 -1.38607 42914 ft 489 kts 238°
2026-04-26 11:39 55.30646 -1.43518 42281 ft 474 kts 238°
2026-04-26 11:40 55.28874 -1.48304 41666 ft 460 kts 238°
2026-04-26 11:40 55.27152 -1.52936 41073 ft 447 kts 238°
2026-04-26 11:40 55.25473 -1.57428 40477 ft 435 kts 238°
2026-04-26 11:40 55.23829 -1.61819 39929 ft 427 kts 238°
2026-04-26 11:41 55.22208 -1.66156 39374 ft 425 kts 238°
2026-04-26 11:42 55.10881 -1.96189 35415 ft 421 kts 238°
2026-04-26 11:43 55.09265 -2.00445 34860 ft 420 kts 238°
2026-04-26 11:43 55.07649 -2.04696 34302 ft 420 kts 238°
2026-04-26 11:43 55.06030 -2.08943 33706 ft 421 kts 239°
2026-04-26 11:43 55.04405 -2.13203 33148 ft 423 kts 239°
2026-04-26 11:44 55.02769 -2.17480 32580 ft 425 kts 239°
2026-04-26 11:44 55.01130 -2.21759 32020 ft 424 kts 238°
2026-04-26 11:44 54.99488 -2.26040 31460 ft 426 kts 238°
2026-04-26 11:44 54.97832 -2.30347 30887 ft 431 kts 238°
2026-04-26 11:45 54.96176 -2.34645 30318 ft 426 kts 238°
2026-04-26 11:45 54.94532 -2.38908 29723 ft 423 kts 238°
2026-04-26 11:45 54.92895 -2.43147 29167 ft 421 kts 238°
2026-04-26 11:45 54.91268 -2.47351 28614 ft 418 kts 238°
2026-04-26 11:46 54.89646 -2.51534 28066 ft 417 kts 238°
2026-04-26 11:46 54.88028 -2.55697 27520 ft 414 kts 238°
2026-04-26 11:46 54.86420 -2.59834 26978 ft 413 kts 238°
2026-04-26 11:46 54.84817 -2.63949 26436 ft 411 kts 238°
2026-04-26 11:47 54.83218 -2.68045 25908 ft 409 kts 237°
2026-04-26 11:47 54.81648 -2.72059 25382 ft 407 kts 237°
2026-04-26 11:47 54.80066 -2.76100 24842 ft 404 kts 237°
2026-04-26 11:47 54.78490 -2.80121 24314 ft 403 kts 237°
2026-04-26 11:48 54.76918 -2.84121 23765 ft 401 kts 237°
2026-04-26 11:48 54.75355 -2.88092 23210 ft 398 kts 237°
2026-04-26 11:48 54.73801 -2.92035 22688 ft 395 kts 237°
2026-04-26 11:48 54.72260 -2.95940 22170 ft 392 kts 237°
2026-04-26 11:49 54.70726 -2.99821 21648 ft 389 kts 236°
2026-04-26 11:49 54.69202 -3.03667 21145 ft 387 kts 236°
2026-04-26 11:49 54.67687 -3.07487 20632 ft 384 kts 236°
2026-04-26 11:49 54.66184 -3.11273 20132 ft 380 kts 236°
2026-04-26 11:50 54.64689 -3.15030 19629 ft 379 kts 236°
2026-04-26 11:50 54.63203 -3.18762 19132 ft 376 kts 236°
2026-04-26 11:50 54.61724 -3.22468 18640 ft 373 kts 236°
2026-04-26 11:50 54.60260 -3.26130 18116 ft 369 kts 236°
2026-04-26 11:51 54.58804 -3.29770 17630 ft 367 kts 236°
2026-04-26 11:51 54.57358 -3.33379 17146 ft 365 kts 236°
2026-04-26 11:51 54.55921 -3.36960 16664 ft 362 kts 236°
2026-04-26 11:51 54.54493 -3.40513 16189 ft 359 kts 236°
2026-04-26 11:52 54.53074 -3.44039 15715 ft 357 kts 235°
2026-04-26 11:52 54.52139 -3.46358 15404 ft 355 kts 235°
2026-04-26 11:52 54.50734 -3.49841 14938 ft 353 kts 235°
2026-04-26 11:52 54.49337 -3.53298 14472 ft 351 kts 235°
2026-04-26 11:53 54.47949 -3.56731 13999 ft 348 kts 235°
2026-04-26 11:53 54.46572 -3.60130 13522 ft 345 kts 235°
2026-04-26 11:53 54.45204 -3.63501 13068 ft 342 kts 235°
2026-04-26 11:54 54.42490 -3.70176 12165 ft 339 kts 235°
2026-04-26 11:54 54.41149 -3.73470 11721 ft 335 kts 235°
2026-04-26 11:54 54.39842 -3.76677 11273 ft 305 kts 234°
2026-04-26 11:54 54.38678 -3.79532 10892 ft 284 kts 234°
2026-04-26 11:55 54.37564 -3.82253 10522 ft 275 kts 234°
2026-04-26 11:55 54.36476 -3.84909 10161 ft 270 kts 234°
2026-04-26 11:55 54.35400 -3.87536 9781 ft 268 kts 234°
2026-04-26 11:55 54.34333 -3.90138 9436 ft 267 kts 234°
2026-04-26 11:56 54.33265 -3.92739 9089 ft 266 kts 234°
2026-04-26 11:56 54.32203 -3.95326 8736 ft 265 kts 234°
2026-04-26 11:56 54.31144 -3.97905 8386 ft 264 kts 234°
2026-04-26 11:56 54.30088 -4.00477 7955 ft 263 kts 234°
2026-04-26 11:57 54.29042 -4.03023 7537 ft 261 kts 234°
2026-04-26 11:57 54.27998 -4.05567 7062 ft 262 kts 234°
2026-04-26 11:57 54.26955 -4.08108 6573 ft 259 kts 234°
2026-04-26 11:57 54.25926 -4.10616 6206 ft 257 kts 234°
2026-04-26 11:58 54.24904 -4.13110 5870 ft 258 kts 234°
2026-04-26 11:58 54.23888 -4.15589 5527 ft 253 kts 234°
2026-04-26 11:58 54.22881 -4.18047 5197 ft 254 kts 234°
2026-04-26 11:58 54.21875 -4.20504 4857 ft 251 kts 234°
2026-04-26 11:59 54.20894 -4.22904 4525 ft 240 kts 234°
2026-04-26 11:59 54.19964 -4.25182 4217 ft 228 kts 234°
2026-04-26 11:59 54.19074 -4.27367 3919 ft 220 kts 234°
2026-04-26 11:59 54.18217 -4.29477 3629 ft 213 kts 234°
2026-04-26 12:00 54.17389 -4.31516 3351 ft 206 kts 234°
2026-04-26 12:00 54.16585 -4.33501 3090 ft 201 kts 234°
2026-04-26 12:00 54.15822 -4.35390 2994 ft 188 kts 234°
2026-04-26 12:00 54.15088 -4.37216 2994 ft 181 kts 234°
2026-04-26 12:01 54.14371 -4.39000 2864 ft 184 kts 234°
2026-04-26 12:01 54.13681 -4.40694 2760 ft 166 kts 233°
2026-04-26 12:01 54.13028 -4.42220 2707 ft 154 kts 232°
2026-04-26 12:01 54.12436 -4.43691 2559 ft 144 kts 233°
2026-04-26 12:02 54.11904 -4.45051 2335 ft 134 kts 237°
2026-04-26 12:02 54.11425 -4.46337 2171 ft 125 kts 235°
2026-04-26 12:02 54.10971 -4.47632 2000 ft 129 kts 237°
2026-04-26 12:02 54.10540 -4.48927 1789 ft 123 kts 238°
2026-04-26 12:03 54.10166 -4.50330 1639 ft 134 kts 244°
2026-04-26 12:03 54.09798 -4.51770 1462 ft 128 kts 242°
2026-04-26 12:03 54.09479 -4.53127 1190 ft 122 kts 248°
2026-04-26 12:03 54.09295 -4.54488 1020 ft 116 kts 257°
2026-04-26 12:04 54.09132 -4.55877 719 ft 130 kts 254°
2026-04-26 12:04 54.08935 -4.57451 573 ft 137 kts 258°
2026-04-26 12:04 54.08742 -4.59054 358 ft 136 kts 257°
2026-04-26 12:04 54.08551 -4.60595 123 ft 133 kts 258°
2026-04-26 12:05 54.08369 -4.62070 29 ft 117 kts 258°
2026-04-26 12:05 54.08238 -4.63102 36 ft 47 kts 258°
2026-04-26 12:05 54.08280 -4.63334 38 ft 23 kts 342°
2026-04-26 12:05 54.08310 -4.63348 37 ft 0 kts 346°
2026-04-26 12:06 54.08370 -4.63351 37 ft 10 kts 48°
2026-04-26 12:06 54.08387 -4.63217 36 ft 17 kts 79°
2026-04-26 12:07 54.08409 -4.63025 34 ft 11 kts 75°
2026-04-26 12:07 54.08504 -4.63010 35 ft 17 kts 347°
2026-04-26 12:07 54.08615 -4.63041 36 ft 11 kts 21°
2026-04-26 12:07 54.08645 -4.62923 37 ft 9 kts 35°
2026-04-26 12:08 54.08721 -4.62907 39 ft 14 kts
2026-04-26 12:08 54.08793 -4.62883 40 ft 5 kts 61°
2026-04-26 12:08 54.08793 -4.62864 40 ft 0 kts 96°